Preview of NWS' New Version of Forecast
This preview is not operational and should not be used for support decisions.

Regional Weather Roundup (RWR)

Issued by National Weather Service (NWS)

                            
000
ASUS45 KBOI 241910
RWRID 

IDAHO REGIONAL WEATHER ROUNDUP
NATIONAL WEATHER SERVICE BOISE ID
100 PM MDT FRI MAY 24 2019

NOTE: "FAIR" INDICATES FEW OR NO CLOUDS BELOW 12000 FEET
WITH NO SIGNIFICANT WEATHER AND/OR OBSTRUCTIONS TO VISIBILITY

IDZ012-014-242000-
SOUTHWEST IDAHO

  
CITY           SKY/WX    TMP DP  RH WIND       PRES   REMARKS
BOISE          PTSUNNY   67  43  41 W12       29.87F                  
CALDWELL       RAIN      54  48  82 N13       29.88S                  
MOUNTAIN HOME  MOSUNNY   66  44  45 NW9       29.86F                  
$$

IDZ016-017-242000-
SOUTHCENTRAL IDAHO

  
CITY           SKY/WX    TMP DP  RH WIND       PRES   REMARKS
BURLEY         PTSUNNY   59  44  57 SW8       29.89F                  
JEROME         MOSUNNY   63  45  51 SW10      29.90F                  
TWIN FALLS     MOSUNNY   63  42  46 W14G22    29.90F                  
$$

IDZ019>023-242000-
SOUTHEAST IDAHO

  
CITY           SKY/WX    TMP DP  RH WIND       PRES   REMARKS
IDAHO FALLS    CLOUDY    54  43  66 SW20      29.92F                  
POCATELLO      CLOUDY    57  41  55 SW16G22   29.94S                  
REXBURG        CLOUDY    53  41  63 SW12      29.91F                  
$$

IDZ006-010-011-018-031-032-242000-
CENTRAL IDAHO MOUNTAINS

  
CITY           SKY/WX    TMP DP  RH WIND       PRES   REMARKS
MCCALL         LGT RAIN  43  38  82 VRB6      29.91R                  
HAILEY         PTSUNNY   54  43  66 E9G16     29.90F                  
STANLEY          N/A     53  30  41 E9        29.90S                  
SALMON         MOSUNNY   60  38  43 VRB3      29.82F                  
CHALLIS        MOSUNNY   59  36  42 VRB3      29.84F                  
$$

IDZ002-004-006-007-026-242000-
NORTHERN IDAHO

  
CITY           SKY/WX    TMP DP  RH WIND       PRES   REMARKS
LEWISTON       RAIN      57  52  83 SE3       29.83R                  
LOWELL           N/A     60  51  72 CALM      29.82                   
COEUR D'ALENE  CLOUDY    57  48  72 SE8       29.79S                  
MULLAN PASS    LGT RAIN  37  36  96 CALM      29.85S VSB 1            
$$